{"data":{"norad_id":27831,"epoch":"2026-05-24T16:27:38.727360Z","epoch_age_seconds":102481,"freshness":"FRESH","line1":"1 27831U 03028B   26144.68586490 -.00000154  00000+0  00000+0 0  9996","line2":"2 27831   6.8338  69.6917 0005876 348.0689 227.1709  1.00271646 52825","mean_motion":1.00271646,"eccentricity":0.0005876,"inclination_deg":6.8338,"raan_deg":69.6917,"arg_perigee_deg":348.0689,"mean_anomaly_deg":227.1709,"bstar":0,"rev_number":5282,"period_min":1436.0988947962,"perigee_km":35761.857908584,"apogee_km":35811.409947379,"semimajor_km":42164.770927982,"source":"CELESTRAK","updated_at":"2026-05-25T13:38:13.816195Z"}}